Location: Beddau
(51.5575°N, 3.3561°W)
Time: 12:19:03
(UTC+00:00)

DMSP B5D2-2 - Pass Details

Date: 03 March 2021
Orbit: 789 x 807 km, 98.3° (Epoch: 11 April)

Event Time Altitude Azimuth Distance (km) Brightness Sun altitude
Rises 19:46:02 0° 15° (NNE) 3,315 7.3 -17.6°
Reaches altitude 10° 19:48:23 10° 17° (NNE) 2,378 6.5 -17.9°
Maximum altitude 19:53:39 76° 104° (ESE) 824 3.9 -18.7°
Drops below altitude 10° 19:58:50 10° 190° (S) 2,351 6.5 -19.5°
Sets 20:01:09 0° 192° (SSW) 3,275 7.2 -19.9°
